| time (UTC) | temp F | wind direction | speed knots | gust knots | rain 1hr in | rain 24hr in | rain mn in | humidity % | barometer mb |
| 20260508054538 | 51 | 0 | 0.0 | 0.0 | 0.00 | 0.25 | 0.00 | 96 | 1014.7 |
| 20260508053039 | 51 | 0 | 0.0 | 0.0 | 0.00 | 0.25 | 0.00 | 96 | 1014.8 |
| 20260508051540 | 52 | 0 | 0.0 | 0.0 | 0.00 | 0.25 | 0.00 | 95 | 1014.6 |
| 20260508050047 | 52 | 0 | 0.0 | 0.0 | 0.00 | 0.25 | 0.00 | 95 | 1014.6 |
| 20260508044542 | 53 | 0 | 0.0 | 0.0 | 0.00 | 0.38 | 0.00 | 96 | 1014.7 |
| 20260508043034 | 53 | 0 | 0.0 | 0.0 | 0.00 | 0.38 | 0.00 | 96 | 1014.6 |
| 20260508041544 | 53 | 0 | 0.0 | 0.0 | 0.00 | 0.38 | 0.00 | 96 | 1014.7 |
| 20260508040048 | 53 | 0 | 0.0 | 0.0 | 0.00 | 0.38 | 0.00 | 95 | 1014.5 |
| 20260508034546 | 54 | 0 | 0.0 | 0.0 | 0.00 | 0.39 | 0.38 | 95 | 1014.2 |
| 20260508033043 | 54 | 0 | 0.0 | 0.0 | 0.00 | 0.39 | 0.38 | 95 | 1014.0 |
| 20260508031536 | 54 | 0 | 0.0 | 0.0 | 0.00 | 0.39 | 0.38 | 94 | 1014.0 |
| 20260508030043 | 54 | 0 | 0.0 | 0.0 | 0.00 | 0.39 | 0.38 | 94 | 1013.8 |
| 20260508024549 | 54 | 0 | 0.0 | 0.0 | 0.00 | 0.39 | 0.38 | 94 | 1013.7 |
| 20260508023042 | 55 | 0 | 0.0 | 0.0 | 0.00 | 0.39 | 0.38 | 94 | 1013.6 |
| 20260508021539 | 55 | 0 | 0.0 | 0.0 | 0.00 | 0.39 | 0.38 | 94 | 1013.5 |
| 20260508020036 | 55 | 0 | 0.0 | 0.0 | 0.00 | 0.39 | 0.38 | 94 | 1013.3 |
| 20260508014541 | 55 | 0 | 0.0 | 1.7 | 0.00 | 0.39 | 0.38 | 94 | 1013.1 |
| 20260508013047 | 55 | 26 | 0.9 | 2.6 | 0.00 | 0.39 | 0.38 | 94 | 1012.7 |
| 20260508011538 | 55 | 44 | 0.9 | 1.7 | 0.00 | 0.39 | 0.38 | 94 | 1012.5 |
| 20260508010039 | 55 | 0 | 0.0 | 0.9 | 0.00 | 0.39 | 0.38 | 93 | 1012.7 |
| 20260508004536 | 55 | 0 | 0.0 | 0.9 | 0.00 | 0.39 | 0.38 | 93 | 1012.3 |
| 20260508003041 | 55 | 0 | 0.0 | 3.5 | 0.00 | 0.39 | 0.38 | 93 | 1012.4 |
| 20260508001542 | 55 | 70 | 0.0 | 3.5 | 0.00 | 0.39 | 0.38 | 93 | 1012.0 |
| 20260508000041 | 55 | 25 | 0.0 | 4.3 | 0.00 | 0.39 | 0.38 | 92 | 1012.1 |
| 20260507234537 | 55 | 318 | 1.7 | 5.2 | 0.00 | 0.39 | 0.38 | 92 | 1011.6 |
| 20260507233043 | 56 | 332 | 0.9 | 4.3 | 0.00 | 0.39 | 0.38 | 91 | 1011.4 |
| 20260507231538 | 56 | 41 | 1.7 | 7.8 | 0.00 | 0.39 | 0.38 | 91 | 1011.2 |
| 20260507230045 | 56 | 5 | 2.6 | 7.8 | 0.00 | 0.39 | 0.38 | 91 | 1010.8 |
| 20260507224542 | 56 | 19 | 0.0 | 8.7 | 0.00 | 0.39 | 0.38 | 91 | 1011.0 |
| 20260507223038 | 57 | 37 | 2.6 | 7.8 | 0.00 | 0.39 | 0.38 | 90 | 1010.8 |
| 20260507221543 | 56 | 5 | 2.6 | 10.4 | 0.00 | 0.39 | 0.38 | 91 | 1010.7 |
| 20260507220043 | 56 | 350 | 0.9 | 9.6 | 0.00 | 0.39 | 0.38 | 92 | 1011.2 |
| 20260507214556 | 56 | 61 | 1.7 | 10.4 | 0.00 | 0.39 | 0.38 | 92 | 1011.1 |
| 20260507213043 | 56 | 5 | 3.5 | 8.7 | 0.00 | 0.39 | 0.38 | 93 | 1010.9 |
| 20260507211550 | 55 | 26 | 2.6 | 9.6 | 0.00 | 0.39 | 0.38 | 94 | 1010.9 |
| 20260507210050 | 55 | 331 | 3.5 | 8.7 | 0.00 | 0.39 | 0.38 | 94 | 1010.8 |
| 20260507204543 | 56 | 34 | 1.7 | 8.7 | 0.00 | 0.39 | 0.38 | 94 | 1010.6 |
| 20260507203101 | 56 | 340 | 2.6 | 9.6 | 0.00 | 0.39 | 0.38 | 94 | 1010.6 |
| 20260507201546 | 56 | 49 | 4.3 | 11.3 | 0.00 | 0.39 | 0.38 | 94 | 1010.6 |
| 20260507200055 | 57 | 17 | 2.6 | 11.3 | 0.00 | 0.39 | 0.38 | 95 | 1010.3 |
| 20260507194537 | 57 | 46 | 3.5 | 10.4 | 0.00 | 0.42 | 0.38 | 96 | 1010.4 |
| 20260507193044 | 57 | 58 | 2.6 | 10.4 | 0.00 | 0.42 | 0.38 | 96 | 1010.3 |
| 20260507191543 | 56 | 326 | 2.6 | 6.1 | 0.00 | 0.42 | 0.38 | 96 | 1010.6 |
| 20260507190042 | 57 | 52 | 4.3 | 9.6 | 0.01 | 0.42 | 0.38 | 96 | 1010.7 |
| 20260507184541 | 57 | 11 | 2.6 | 11.3 | 0.01 | 0.47 | 0.38 | 96 | 1010.3 |
| 20260507183036 | 57 | 11 | 2.6 | 7.0 | 0.02 | 0.47 | 0.38 | 96 | 1010.7 |
| 20260507181543 | 57 | 313 | 3.5 | 12.2 | 0.02 | 0.47 | 0.38 | 96 | 1009.9 |
| 20260507180047 | 58 | 5 | 2.6 | 13.9 | 0.01 | 0.46 | 0.37 | 96 | 1010.0 |
| 20260507174544 | 58 | 5 | 3.5 | 12.2 | 0.02 | 0.46 | 0.37 | 96 | 1009.8 |
| 20260507173040 | 58 | 321 | 5.2 | 12.2 | 0.02 | 0.45 | 0.36 | 95 | 1010.8 |
| 20260507171544 | 59 | 9 | 3.5 | 11.3 | 0.04 | 0.45 | 0.36 | 95 | 1010.0 |
| 20260507170043 | 62 | 313 | 6.1 | 14.8 | 0.04 | 0.45 | 0.36 | 93 | 1009.3 |
| 20260507164556 | 67 | 0 | 0.9 | 3.5 | 0.05 | 0.44 | 0.35 | 97 | 1009.1 |
| 20260507163041 | 67 | 25 | 1.7 | 7.0 | 0.04 | 0.43 | 0.34 | 97 | 1009.5 |
| 20260507161542 | 67 | 350 | 1.7 | 5.2 | 0.02 | 0.41 | 0.32 | 97 | 1010.5 |
| 20260507160044 | 68 | 0 | 0.0 | 2.6 | 0.03 | 0.40 | 0.31 | 97 | 1010.4 |
| 20260507154550 | 68 | 0 | 1.7 | 4.3 | 0.02 | 0.39 | 0.30 | 97 | 1010.5 |
| 20260507153042 | 68 | 240 | 0.0 | 2.6 | 0.03 | 0.39 | 0.30 | 97 | 1010.0 |
| 20260507151541 | 67 | 209 | 0.0 | 0.9 | 0.06 | 0.39 | 0.30 | 97 | 1010.1 |
| 20260507150039 | 67 | 0 | 0.0 | 3.5 | 0.05 | 0.37 | 0.28 | 97 | 1010.4 |
| 20260507144537 | 67 | 0 | 0.0 | 5.2 | 0.06 | 0.37 | 0.28 | 97 | 1010.2 |
| 20260507143042 | 67 | 0 | 0.0 | 2.6 | 0.07 | 0.36 | 0.27 | 97 | 1010.4 |
| 20260507141547 | 67 | 221 | 0.9 | 4.3 | 0.04 | 0.33 | 0.24 | 97 | 1010.3 |
| 20260507140038 | 67 | 227 | 0.9 | 4.3 | 0.03 | 0.32 | 0.23 | 97 | 1010.5 |
| 20260507134541 | 67 | 222 | 1.7 | 4.3 | 0.01 | 0.30 | 0.21 | 97 | 1010.7 |
| 20260507133059 | 67 | 252 | 1.7 | 6.1 | 0.00 | 0.29 | 0.20 | 97 | 1011.0 |
| 20260507131550 | 67 | 211 | 0.9 | 4.3 | 0.00 | 0.29 | 0.20 | 97 | 1010.9 |
| 20260507130056 | 66 | 229 | 0.9 | 4.3 | 0.00 | 0.29 | 0.20 | 97 | 1010.8 |
| 20260507124537 | 66 | 0 | 0.0 | 3.5 | 0.00 | 0.29 | 0.20 | 97 | 1011.1 |
| 20260507123043 | 66 | 188 | 0.0 | 2.6 | 0.00 | 0.29 | 0.20 | 97 | 1011.0 |
| 20260507121545 | 66 | 0 | 0.0 | 2.6 | 0.00 | 0.29 | 0.20 | 98 | 1010.8 |
| 20260507120053 | 66 | 0 | 0.0 | 3.5 | 0.00 | 0.29 | 0.20 | 97 | 1011.0 |
| 20260507114603 | 66 | 0 | 0.0 | 5.2 | 0.00 | 0.29 | 0.20 | 97 | 1010.9 |
| 20260507113036 | 65 | 219 | 0.9 | 3.5 | 0.01 | 0.29 | 0.20 | 97 | 1011.3 |
| 20260507111536 | 65 | 213 | 1.7 | 4.3 | 0.01 | 0.29 | 0.20 | 97 | 1011.2 |
| 20260507110043 | 65 | 190 | 1.7 | 5.2 | 0.01 | 0.29 | 0.20 | 97 | 1011.2 |
| 20260507104543 | 65 | 218 | 0.0 | 2.6 | 0.01 | 0.29 | 0.20 | 97 | 1010.9 |
| 20260507103039 | 65 | 161 | 0.9 | 3.5 | 0.00 | 0.28 | 0.19 | 97 | 1010.7 |
| 20260507101542 | 65 | 0 | 0.0 | 0.9 | 0.00 | 0.28 | 0.19 | 97 | 1010.7 |
| 20260507100036 | 64 | 201 | 0.0 | 1.7 | 0.00 | 0.28 | 0.19 | 97 | 1010.8 |
| 20260507094534 | 64 | 0 | 0.0 | 0.0 | 0.00 | 0.28 | 0.19 | 97 | 1010.6 |
| 20260507093042 | 64 | 200 | 0.0 | 2.6 | 0.00 | 0.28 | 0.19 | 97 | 1011.1 |
| 20260507091549 | 64 | 0 | 0.0 | 0.0 | 0.00 | 0.28 | 0.19 | 97 | 1010.7 |
| 20260507090049 | 64 | 0 | 0.0 | 0.0 | 0.01 | 0.28 | 0.19 | 97 | 1010.9 |
| 20260507084554 | 64 | 0 | 0.0 | 0.9 | 0.01 | 0.28 | 0.19 | 96 | 1011.1 |
| 20260507083043 | 65 | 0 | 0.0 | 2.6 | 0.02 | 0.28 | 0.19 | 96 | 1011.2 |
| 20260507081547 | 65 | 0 | 0.0 | 3.5 | 0.02 | 0.28 | 0.19 | 96 | 1011.7 |
| 20260507080044 | 65 | 0 | 0.0 | 0.0 | 0.01 | 0.27 | 0.18 | 96 | 1011.6 |
| 20260507074538 | 65 | 0 | 0.0 | 0.0 | 0.01 | 0.27 | 0.18 | 96 | 1011.1 |
| 20260507073036 | 65 | 0 | 0.0 | 0.0 | 0.00 | 0.26 | 0.17 | 96 | 1012.0 |
| 20260507071543 | 65 | 214 | 0.0 | 2.6 | 0.00 | 0.26 | 0.17 | 96 | 1012.0 |
| 20260507070042 | 65 | 0 | 0.0 | 2.6 | 0.00 | 0.26 | 0.17 | 96 | 1012.2 |
| 20260507064541 | 65 | 216 | 0.0 | 1.7 | 0.00 | 0.26 | 0.17 | 96 | 1012.3 |
| 20260507063043 | 65 | 0 | 0.0 | 2.6 | 0.00 | 0.26 | 0.17 | 96 | 1012.8 |
| 20260507061537 | 65 | 206 | 0.0 | 0.9 | 0.00 | 0.26 | 0.17 | 95 | 1012.5 |
| 20260507060044 | 65 | 0 | 0.0 | 1.7 | 0.04 | 0.26 | 0.17 | 95 | 1012.6 |